Observations for Trim Market St
| Time | AQI | Temp °C | Hum % | Pres Pa | CO μg/m³ | H₂S μg/m³ | NO μg/m³ | NO₂ μg/m³ | O₃ μg/m³ | SO₂ μg/m³ | PM1 μg/m³ | PM2.5 μg/m³ | PM10 μg/m³ |
|---|---|---|---|---|---|---|---|---|---|---|---|---|---|
| Tuesday 14 July 2026 | |||||||||||||
| 09:20 | 1 | 29.3 | 40 | 64,870 | 0 | 0 | 0 | 0 | 24.66 | 0 | 2.85 | 4.99 | 5.92 |
| 09:19 | 1 | 29.2 | 40 | 64,890 | 0 | 0 | 0 | 0 | 25.71 | 0 | 2.85 | 5.52 | 5.92 |
| 09:18 | 1 | 29.2 | 40 | 64,880 | 0 | 0 | 0 | 0 | 20.56 | 0 | 2.14 | 4.99 | 5.11 |
| 09:17 | 1 | 29.2 | 40 | 64,839 | 0 | 0 | 0 | 0 | 16.09 | 0 | 2.14 | 5.51 | 6.72 |
| 09:16 | 1 | 29.2 | 40 | 64,809 | 0 | 0 | 0 | 0 | 23.72 | 0 | 1.43 | 4.98 | 6.72 |
| 09:15 | 1 | 29.2 | 40 | 64,809 | 0 | 0 | 0 | 0 | 21.07 | 0 | 2.14 | 4.98 | 5.12 |
| 09:14 | 1 | 29.2 | 40 | 64,839 | 0 | 0 | 0 | 0 | 19.41 | 0 | 2.85 | 5.52 | 6.72 |
| 09:13 | 1 | 29.2 | 40 | 64,845 | 0 | 0 | 0 | 0 | 16.27 | 0 | 2.85 | 7.1 | 9.13 |
| 09:12 | 1 | 29.2 | 40 | 64,848 | 0 | 0 | 0 | 0 | 19.18 | 0 | 2.85 | 5.51 | 5.92 |
| 09:11 | 1 | 29.2 | 40 | 64,856 | 0 | 0 | 0 | 0 | 16.06 | 0 | 3.56 | 6.04 | 6.72 |
| 09:10 | 1 | 29.2 | 40 | 64,839 | 0 | 0 | 0 | 0 | 10.61 | 0 | 2.85 | 5.5 | 8.33 |
| 09:09 | 1 | 29.2 | 41 | 64,776 | 0 | 0 | 0 | 0 | 12.45 | 0 | 2.14 | 5.49 | 7.53 |
| 09:08 | 1 | 29.2 | 41 | 64,728 | 0 | 0 | 0 | 0 | 15.75 | 0 | 4.28 | 6.54 | 7.53 |
| 09:00 | 1 | 29.1 | 42 | 64,479 | 0 | 0 | 0 | 0 | 12.51 | 0 | 0.71 | 3.86 | 4.24 |
| 08:59 | 1 | 29.1 | 42 | 64,467 | 0 | 0 | 0 | 0 | 6.48 | 0 | 2.85 | 5.44 | 8.32 |
| 08:55 | 1 | 29 | 42 | 64,321 | 0 | 0 | 0 | 0 | 6.43 | 0 | 2.85 | 5.94 | 7.53 |
| 08:53 | 1 | 29 | 43 | 64,213 | 0 | 0 | 0 | 0 | 4.57 | 0 | 3.56 | 6.45 | 9.11 |
| 08:50 | 1 | 28.8 | 43 | 64,019 | 0 | 0 | 0 | 0 | 7.81 | 0 | 3.56 | 6.95 | 9.1 |
| 08:48 | 1 | 28.7 | 43 | 63,864 | 0 | 0 | 0 | 0 | 3.13 | 0 | 2.14 | 5.36 | 5.96 |
| 08:47 | 1 | 28.7 | 44 | 63,687 | 0 | 0 | 0 | 0 | 3.8 | 0 | 2.85 | 5.87 | 6.74 |